Seinajoki current weather conditions

sailwx.info

Wind from 360 at 5 knots

Air temperature -1.0° C
Visibility: greater than 5.4 NM
Dewpoint -1.0° C

Last reported at 2020-Jan-26 08:50 UTC.
Time now 2020-Jan-26 10:08 UTC

Location: N 62°42' E 022°50'.
View on Google Maps.

See reports from other nearby stations

  
Tides and Currents Weather Stations Pressure Air Temp Water Temp Dewpoint Dewpoint Depression Visibility Wind Speed Wind Dir Waves Ship Positions
date/time (UTC)wind fromknots sea level pressurealtimeterstation pressurevisibilityair tempwater tempwave heightnotes
2020-Jan-26 08:50 360 5 5.4-1.0
2020-Jan-26 08:20 340 5 5.4-0.0
2020-Jan-26 07:50 330 2 3.2-0.0 Light snow.
2020-Jan-26 07:20 310 1 2.1-0.0 Light snow.
2020-Jan-26 06:50 290 0 1.3-0.0 Light snow.
2020-Jan-26 06:20 0.9-1.0 Snow.
2020-Jan-26 05:50 0.8-1.0 Snow showers.
2020-Jan-26 05:20 120 0 5.4-1.0
2020-Jan-26 04:50 120 2 5.4-1.0 Light freezing rain. Snow.
2020-Jan-26 04:20 150 0 4.9-1.0 Light snow.
2020-Jan-26 03:50 140 2 0.6-1.0 Snow.
2020-Jan-26 03:20 140 5 0.9-1.0 Snow.
2020-Jan-26 02:50 150 5 0.5-2.0 Snow.
2020-Jan-26 02:20 120 11 0.6-2.0 Snow.
2020-Jan-26 01:50 120 8 0.6-2.0 Snow.
2020-Jan-26 01:20 130 6 0.4-2.0 Snow.
2020-Jan-26 00:50 120 6 1.1-2.0 Light snow.
2020-Jan-26 00:20 130 6 5.4-1.0 Snow grains.
2020-Jan-25 23:50 130 4 2.7-2.0 Light freezing rain. Snow.
2020-Jan-25 23:20 160 2 5.4-2.0 Snow grains.
2020-Jan-25 22:50 180 2 5.4-2.0
2020-Jan-25 22:20 170 2 5.4-2.0
2020-Jan-25 21:50 190 2 5.4-2.0
2020-Jan-25 21:20 210 1 5.4-3.0
2020-Jan-25 20:50 210 1 5.4-3.0
2020-Jan-25 20:20 220 2 5.4-4.0
2020-Jan-25 19:50 210 2 5.4-4.0
2020-Jan-25 19:20 220 2 5.4-4.0
2020-Jan-25 18:50 210 1 5.4-4.0
2020-Jan-25 18:20 250 4 5.4-3.0
2020-Jan-25 17:50 240 2 5.4-3.0
2020-Jan-25 17:20 250 4 5.4-3.0
2020-Jan-25 16:50 250 2 5.4-3.0
2020-Jan-25 16:20 250 2 5.4-3.0
2020-Jan-25 15:50 230 1 5.4-3.0
2020-Jan-25 15:20 210 0 5.4-3.0
2020-Jan-25 14:50 230 1 5.4-2.0
2020-Jan-25 14:20 260 4 5.4-2.0
2020-Jan-25 13:50 270 6 5.4-1.0
2020-Jan-25 13:20 280 7 5.4-1.0
2020-Jan-25 12:50 280 7 5.4-0.0
2020-Jan-25 12:20 280 8 5.4-0.0
2020-Jan-25 11:50 280 9 5.4-0.0
2020-Jan-25 11:20 270 9 5.4-0.0
2020-Jan-25 10:50 270 9 5.4-0.0
2020-Jan-25 10:20 270 8 5.4-1.0
2020-Jan-25 09:50 280 8 5.4-1.0
2020-Jan-25 09:20 280 8 5.4-1.0
2020-Jan-25 08:50 270 8 5.4-1.0
2020-Jan-25 08:20 280 8 5.4-2.0
2020-Jan-25 07:50 280 8 5.4-2.0
2020-Jan-25 07:20 270 8 5.4-2.0
2020-Jan-25 06:50 270 8 5.4-2.0
2020-Jan-25 06:20 270 8 5.4-2.0
2020-Jan-25 05:50 270 7 5.4-2.0
2020-Jan-25 05:20 270 8 5.4-2.0
2020-Jan-25 04:50 270 7 5.4-2.0
2020-Jan-25 04:20 270 7 5.4-1.0
2020-Jan-25 03:50 260 7 5.4-1.0
2020-Jan-25 03:20 260 8 5.4-1.0
2020-Jan-25 02:50 260 8 5.4-1.0
2020-Jan-25 02:20 270 7 5.4-1.0
2020-Jan-25 01:50 260 8 5.4-1.0
2020-Jan-25 01:20 260 7 5.4-1.0
2020-Jan-25 00:50 270 7 5.4-1.0
2020-Jan-25 00:20 270 8 5.4-0.0
2020-Jan-24 23:50 270 8 5.4-0.0
2020-Jan-24 23:20 270 8 5.4-0.0
2020-Jan-24 22:50 270 8 5.4-0.0
2020-Jan-24 22:20 270 9 5.4 1.0
2020-Jan-24 21:50 270 13 5.4 1.0
2020-Jan-24 21:20 260 9 5.4 1.0
2020-Jan-24 20:50 270 8 5.4 2.0
2020-Jan-24 20:20 260 8 5.4 2.0
2020-Jan-24 19:50 270 7 5.4 2.0
2020-Jan-24 19:20 250 5 5.4 1.0
2020-Jan-24 18:50 250 4 5.4 1.0
2020-Jan-24 18:20 240 6 5.4 1.0
2020-Jan-24 17:50 240 6 5.4 1.0
2020-Jan-24 17:20 230 5 5.4 1.0
2020-Jan-24 16:50 230 5 5.4-0.0
2020-Jan-24 16:20 5.4-0.0
2020-Jan-24 15:50 5.4-1.0
2020-Jan-24 15:20 5.4-1.0
2020-Jan-24 14:50 230 2 5.4-1.0
2020-Jan-24 14:20 250 2 5.4-0.0
2020-Jan-24 13:50 250 5 5.4 1.0
2020-Jan-24 13:20 270 6 5.4 1.0
2020-Jan-24 12:50 270 6 5.4 1.0
2020-Jan-24 12:20 260 6 5.4 2.0
2020-Jan-24 11:50 270 6 5.4 2.0
2020-Jan-24 11:20 260 6 5.4 2.0
2020-Jan-24 10:50 270 7 5.4 2.0
2020-Jan-24 10:20 280 7 5.4 2.0